Regional Weather Roundup
Issued by NWS

Home | Current Version | Previous Version | Text Only | Print | Product List | Glossary On
Versions: 1 2 3 4 5 6 7 8 9 10 11 12 13 14 15 16 17 18 19 20 21 22 23 24 25 26 27 28 29 30 31 32 33 34 35 36 37 38 39 40 41 42 43 44 45 46 47 48 49 50
000
ASUS45 KSLC 251710
RWRUT

UTAH REGIONAL WEATHER ROUNDUP
NATIONAL WEATHER SERVICE SALT LAKE CITY UT
1000 AM MST SUN JAN 25 2015

UTZ001>011-023>025-251800-

NORTHERN UTAH

CITY           SKY/WX    TMP DP  RH WIND       PRES   REMARKS
BRIGHAM CITY   CLOUDY    37  30  77 CALM      30.48R
HILL AFB       MOSUNNY   38  22  50 S2        30.45S
LOGAN          CLOUDY    33  31  92 CALM      30.46R FOG
OGDEN          MOSUNNY   39  29  67 CALM      30.46R
PROVO AIRPORT  PTSUNNY   37  25  60 VRB3      30.48R
SALT LAKE CITY MOSUNNY   38  30  73 CALM      30.46F
VERNAL         MOSUNNY   26  19  74 W3        30.42R
WENDOVER       MOSUNNY   30  25  80 SW3       30.48R
HEBER CITY     CLOUDY    34  27  75 CALM      30.47S
WEST JORDAN    SUNNY     39  28  65 S3        30.46F

$$

UTZ012>022-026-027-251800-

SOUTHERN/CENTRAL UTAH

CITY           SKY/WX    TMP DP  RH WIND       PRES   REMARKS
BLANDING       SUNNY     46  25  43 S6        30.41R
BRYCE CANYON   SUNNY     36  27  69 N8        30.43R WCI  30
CEDAR CITY     SUNNY     35  26  69 CALM      30.43R
DELTA          SUNNY     37  28  69 CALM      30.47S
MILFORD        SUNNY     39  25  57 NE9       30.45S WCI  33
MOAB/CYNLANDS  SUNNY     35  19  52 SE6       30.40R WCI  30
PRICE          SUNNY     36  21  54 VRB5      30.38R WCI  32
ST GEORGE      MOSUNNY   46  25  42 CALM      30.38R

$$

REGIONAL REPORTS     COLORADO/ARIZONA

CITY           SKY/WX    TMP DP  RH WIND       PRES   REMARKS
CRAIG, CO      MOSUNNY   25  17  72 CALM      30.39S
GRAND JUNCTION SUNNY     35  17  47 S3        30.40R
RIFLE          MOSUNNY   29  20  69 CALM      30.42F
MONTROSE       SUNNY     34  18  52 CALM      30.42S
CORTEZ         SUNNY     34  21  59 CALM      30.36R
PAGE, AZ       NOT AVBL
GRAND CANYON   SUNNY     48  22  35 NE18G24   30.36R
KINGMAN        SUNNY     54  23  30 N14       30.26S
FLAGSTAFF      SUNNY     47  19  33 E15G24    30.34R

$$

REGIONAL REPORTS    NEVADA/IDAHO/WYOMING

CITY           SKY/WX    TMP DP  RH WIND       PRES   REMARKS
LAS VEGAS, NV  SUNNY     57  27  31 SW5       30.26R
ELY            SUNNY     33  27  78 CALM      30.48R
ELKO           SUNNY     32  27  81 CALM      30.46S
POCATELLO, ID  CLOUDY    31  30  96 NE6       30.45F WCI  25
BURLEY         MOSUNNY   37  30  75 NE6       30.44R WCI  32
EVANSTON, WY   MOSUNNY   33  30  88 SW9       30.44R WCI  25
ROCK SPRINGS   PTSUNNY   36  29  75 W26G33    30.33S WCI  24
KEMMERER       CLOUDY    32  32 100 W15       30.42R WCI  22

$$



USA.gov is the U.S. government's official web portal to all federal, state and local government web resources and services.